ARG1466 SABE-SASA

Flight info

Callsign ARG1466
Flight time 1h 57m
Altitude 36000
Route BIVAM4B BIVAM UW8 ERE UT672 DADMI UT677 ILPAR
Aircraft B738/M-SDE2E3FGHIRWXY/LB1

Departure

Time 2026-04-25 22:10
Airport Aeroparque Jorge Newbery (SABE)

Arrival

Time 2026-04-26 00:08
Airport Martín Miguel de Güemes International Airport (SASA)
Time Latitude Longitude Altitude Speed Heading
2026-04-25 21:46 -34.55889 -58.41107 28 ft 0 kts 39°
2026-04-25 21:58 -34.55897 -58.41114 28 ft 2 kts 39°
2026-04-25 21:58 -34.55904 -58.41122 28 ft 2 kts 31°
2026-04-25 21:59 -34.55919 -58.41127 28 ft 2 kts 360°
2026-04-25 21:59 -34.55934 -58.41123 28 ft 2 kts 333°
2026-04-25 21:59 -34.55943 -58.41115 28 ft 0 kts 312°
2026-04-25 22:00 -34.55948 -58.41108 28 ft 0 kts 309°
2026-04-25 22:02 -34.55946 -58.41111 28 ft 4 kts 309°
2026-04-25 22:02 -34.55900 -58.41180 28 ft 15 kts 309°
2026-04-25 22:03 -34.55868 -58.41285 28 ft 13 kts 224°
2026-04-25 22:03 -34.55893 -58.41358 28 ft 12 kts 297°
2026-04-25 22:03 -34.55847 -58.41477 28 ft 20 kts 294°
2026-04-25 22:03 -34.55780 -58.41646 28 ft 20 kts 296°
2026-04-25 22:04 -34.55733 -58.41754 28 ft 16 kts 300°
2026-04-25 22:04 -34.55676 -58.41856 28 ft 9 kts 304°
2026-04-25 22:04 -34.55632 -58.41936 28 ft 14 kts 303°
2026-04-25 22:04 -34.55572 -58.42045 28 ft 17 kts 306°
2026-04-25 22:05 -34.55514 -58.42137 28 ft 13 kts 308°
2026-04-25 22:05 -34.55457 -58.42226 28 ft 13 kts 307°
2026-04-25 22:05 -34.55398 -58.42318 28 ft 8 kts 307°
2026-04-25 22:05 -34.55371 -58.42368 28 ft 0 kts 293°
2026-04-25 22:08 -34.55366 -58.42385 28 ft 5 kts 284°
2026-04-25 22:08 -34.55356 -58.42443 28 ft 9 kts 279°
2026-04-25 22:08 -34.55382 -58.42506 28 ft 6 kts 201°
2026-04-25 22:08 -34.55415 -58.42484 28 ft 2 kts 127°
2026-04-25 22:09 -34.55417 -58.42481 28 ft 0 kts 127°
2026-04-25 22:09 -34.55449 -58.42427 28 ft 30 kts 125°
2026-04-25 22:10 -34.55722 -58.41949 28 ft 104 kts 124°
2026-04-25 22:10 -34.56248 -58.41012 38 ft 159 kts 123°
2026-04-25 22:10 -34.56852 -58.39824 459 ft 170 kts 121°
2026-04-25 22:10 -34.57426 -58.38561 1093 ft 175 kts 121°
2026-04-25 22:11 -34.57930 -58.37218 1805 ft 181 kts 99°
2026-04-25 22:11 -34.57777 -58.35655 2284 ft 202 kts 71°
2026-04-25 22:11 -34.57098 -58.34158 3087 ft 204 kts 48°
2026-04-25 22:11 -34.55990 -58.33008 3611 ft 226 kts 30°
2026-04-25 22:12 -34.54511 -58.32079 4023 ft 245 kts 24°
2026-04-25 22:12 -34.53009 -58.31251 4985 ft 232 kts 22°
2026-04-25 22:12 -34.51479 -58.30607 5397 ft 250 kts 15°
2026-04-25 22:12 -34.50304 -58.30215 5297 ft 277 kts 14°
2026-04-25 22:13 -34.47807 -58.29455 6477 ft 272 kts
2026-04-25 22:13 -34.45985 -58.29309 7331 ft 269 kts 355°
2026-04-25 22:13 -34.44195 -58.29736 7758 ft 280 kts 338°
2026-04-25 22:13 -34.42543 -58.30823 8834 ft 266 kts 323°
2026-04-25 22:14 -34.41063 -58.32221 9134 ft 285 kts 318°
2026-04-25 22:14 -34.39603 -58.33863 9814 ft 285 kts 313°
2026-04-25 22:14 -34.38316 -58.35457 11222 ft 256 kts 315°
2026-04-25 22:14 -34.37089 -58.36838 12307 ft 239 kts 317°
2026-04-25 22:15 -34.35786 -58.38207 12420 ft 263 kts 317°
2026-04-25 22:15 -34.34349 -58.39746 12528 ft 286 kts 319°
2026-04-25 22:15 -34.32819 -58.41211 13521 ft 273 kts 321°
2026-04-25 22:16 -34.29782 -58.43612 14619 ft 285 kts 327°
2026-04-25 22:16 -34.28000 -58.44815 14953 ft 297 kts 329°
2026-04-25 22:16 -34.26235 -58.45859 16174 ft 275 kts 330°
2026-04-25 22:16 -34.24668 -58.46883 17284 ft 253 kts 324°
2026-04-25 22:17 -34.23190 -58.48170 17203 ft 279 kts 315°
2026-04-25 22:17 -34.21749 -58.49901 17288 ft 295 kts 308°
2026-04-25 22:17 -34.20569 -58.51762 18488 ft 270 kts 300°
2026-04-25 22:17 -34.19664 -58.53545 19670 ft 244 kts 297°
2026-04-25 22:18 -34.18855 -58.55415 19671 ft 264 kts 289°
2026-04-25 22:18 -34.18187 -58.57601 19409 ft 294 kts 287°
2026-04-25 22:18 -34.17491 -58.60010 19533 ft 309 kts 290°
2026-04-25 22:18 -34.16598 -58.62252 20670 ft 290 kts 295°
2026-04-25 22:19 -34.15594 -58.64218 21875 ft 266 kts 300°
2026-04-25 22:19 -34.14555 -58.66015 22404 ft 266 kts 301°
2026-04-25 22:19 -34.13484 -58.67967 22126 ft 294 kts 300°
2026-04-25 22:19 -34.12238 -58.70014 22169 ft 312 kts 305°
2026-04-25 22:20 -34.10840 -58.72084 22220 ft 327 kts 306°
2026-04-25 22:20 -34.09399 -58.74285 22268 ft 342 kts 304°
2026-04-25 22:20 -34.07932 -58.76615 22317 ft 356 kts 304°
2026-04-25 22:20 -34.06424 -58.79073 22384 ft 368 kts 303°
2026-04-25 22:21 -34.04925 -58.81544 22440 ft 366 kts 303°
2026-04-25 22:21 -34.03418 -58.84044 22779 ft 371 kts 303°
2026-04-25 22:21 -34.01901 -58.86571 23174 ft 374 kts 304°
2026-04-25 22:21 -34.00381 -58.89107 23653 ft 375 kts 304°
2026-04-25 22:22 -33.98804 -58.91606 24069 ft 377 kts 308°
2026-04-25 22:22 -33.97015 -58.93936 24513 ft 379 kts 315°
2026-04-25 22:22 -33.94979 -58.95979 24928 ft 383 kts 322°
2026-04-25 22:22 -33.92766 -58.97742 25344 ft 384 kts 326°
2026-04-25 22:23 -33.90493 -58.99425 25723 ft 386 kts 326°
2026-04-25 22:23 -33.88191 -59.01103 26101 ft 388 kts 326°
2026-04-25 22:23 -33.85893 -59.02775 26475 ft 389 kts 327°
2026-04-25 22:23 -33.83575 -59.04462 26829 ft 391 kts 327°
2026-04-25 22:24 -33.81259 -59.06147 27174 ft 393 kts 326°
2026-04-25 22:24 -33.78899 -59.07865 27510 ft 395 kts 326°
2026-04-25 22:24 -33.76562 -59.09565 27839 ft 396 kts 326°
2026-04-25 22:24 -33.74213 -59.11274 28156 ft 398 kts 326°
2026-04-25 22:25 -33.71853 -59.12990 28474 ft 399 kts 326°
2026-04-25 22:25 -33.69484 -59.14712 28775 ft 401 kts 326°
2026-04-25 22:25 -33.67105 -59.16440 29075 ft 402 kts 326°
2026-04-25 22:25 -33.64719 -59.18172 29360 ft 404 kts 326°
2026-04-25 22:26 -33.62306 -59.19923 29645 ft 406 kts 326°
2026-04-25 22:26 -33.59875 -59.21685 29917 ft 407 kts 325°
2026-04-25 22:26 -33.57462 -59.23434 30185 ft 409 kts 325°
2026-04-25 22:26 -33.55037 -59.25190 30459 ft 410 kts 325°
2026-04-25 22:27 -33.52606 -59.26948 30795 ft 409 kts 325°
2026-04-25 22:27 -33.50173 -59.28707 31135 ft 408 kts 325°
2026-04-25 22:27 -33.47753 -59.30456 31471 ft 407 kts 324°
2026-04-25 22:27 -33.45314 -59.32216 31808 ft 406 kts 324°
2026-04-25 22:28 -33.42901 -59.33958 32133 ft 405 kts 324°
2026-04-25 22:28 -33.40492 -59.35695 32449 ft 404 kts 324°
2026-04-25 22:28 -33.38101 -59.37418 32756 ft 403 kts 324°
2026-04-25 22:28 -33.35714 -59.39138 33053 ft 402 kts 324°
2026-04-25 22:29 -33.33329 -59.40854 33342 ft 402 kts 324°
2026-04-25 22:29 -33.30939 -59.42574 33622 ft 401 kts 323°
2026-04-25 22:29 -33.28547 -59.44293 33898 ft 400 kts 323°
2026-04-25 22:30 -33.23804 -59.47700 34417 ft 399 kts 323°
2026-04-25 22:30 -33.21432 -59.49402 34667 ft 398 kts 323°
2026-04-25 22:30 -33.19072 -59.51094 34911 ft 398 kts 323°
2026-04-25 22:30 -33.17480 -59.52235 35068 ft 397 kts 323°
2026-04-25 22:31 -33.14343 -59.54482 35377 ft 397 kts 323°
2026-04-25 22:31 -33.11972 -59.56179 35603 ft 396 kts 323°
2026-04-25 22:31 -33.09627 -59.57856 35897 ft 393 kts 323°
2026-04-25 22:31 -33.07281 -59.59533 35973 ft 396 kts 323°
2026-04-25 22:32 -33.02601 -59.62874 35965 ft 388 kts 322°
2026-04-25 22:32 -32.98028 -59.66130 35967 ft 379 kts 322°
2026-04-25 22:33 -32.93505 -59.69344 35966 ft 376 kts 321°
2026-04-25 22:33 -32.89002 -59.72548 35967 ft 378 kts 321°
2026-04-25 22:34 -32.84427 -59.75800 35966 ft 379 kts 321°
2026-04-25 22:34 -32.79855 -59.79045 35966 ft 378 kts 321°
2026-04-25 22:35 -32.75320 -59.82259 35966 ft 378 kts 321°
2026-04-25 22:35 -32.70822 -59.85444 35966 ft 378 kts 321°
2026-04-25 22:36 -32.66317 -59.88631 35966 ft 378 kts 321°
2026-04-25 22:36 -32.61799 -59.91822 35966 ft 378 kts 321°
2026-04-25 22:37 -32.57293 -59.95003 35966 ft 378 kts 321°
2026-04-25 22:37 -32.52835 -59.98150 35966 ft 378 kts 321°
2026-04-25 22:38 -32.48314 -60.01338 35966 ft 378 kts 321°
2026-04-25 22:38 -32.43792 -60.04522 35966 ft 378 kts 321°
2026-04-25 22:39 -32.39281 -60.07695 35966 ft 378 kts 321°
2026-04-25 22:39 -32.34777 -60.10860 35966 ft 378 kts 321°
2026-04-25 22:40 -32.30249 -60.14037 35966 ft 378 kts 321°
2026-04-25 22:40 -32.25733 -60.17203 35966 ft 378 kts 321°
2026-04-25 22:41 -32.21221 -60.20361 35966 ft 378 kts 321°
2026-04-25 22:41 -32.16688 -60.23531 35966 ft 378 kts 321°
2026-04-25 22:42 -32.12181 -60.26679 35966 ft 378 kts 321°
2026-04-25 22:42 -32.07667 -60.29827 35966 ft 378 kts 321°
2026-04-25 22:43 -32.03144 -60.32979 35966 ft 378 kts 321°
2026-04-25 22:43 -31.98613 -60.36132 35966 ft 378 kts 321°
2026-04-25 22:44 -31.94088 -60.39278 35966 ft 378 kts 321°
2026-04-25 22:44 -31.89576 -60.42411 35967 ft 378 kts 321°
2026-04-25 22:45 -31.85039 -60.45558 35966 ft 378 kts 321°
2026-04-25 22:45 -31.80531 -60.48691 35966 ft 377 kts 321°
2026-04-25 22:46 -31.76132 -60.52008 35966 ft 376 kts 319°
2026-04-25 22:46 -31.71770 -60.55363 35966 ft 376 kts 319°
2026-04-25 22:47 -31.67385 -60.58719 35966 ft 376 kts 319°
2026-04-25 22:47 -31.62996 -60.62067 35966 ft 376 kts 319°
2026-04-25 22:48 -31.58566 -60.65439 35967 ft 376 kts 320°
2026-04-25 22:48 -31.54156 -60.68781 35966 ft 377 kts 320°
2026-04-25 22:49 -31.49761 -60.72109 35966 ft 376 kts 320°
2026-04-25 22:49 -31.45386 -60.75420 35966 ft 376 kts 320°
2026-04-25 22:50 -31.40996 -60.78741 35966 ft 376 kts 320°
2026-04-25 22:50 -31.36584 -60.82076 35966 ft 376 kts 320°
2026-04-25 22:51 -31.32159 -60.85417 35966 ft 376 kts 320°
2026-04-25 22:51 -31.27742 -60.88748 35966 ft 376 kts 320°
2026-04-25 22:52 -31.23337 -60.92067 35966 ft 376 kts 320°
2026-04-25 22:52 -31.19686 -60.94815 35966 ft 376 kts 320°
2026-04-25 22:53 -31.14565 -60.98665 35966 ft 377 kts 320°
2026-04-25 22:53 -31.10143 -61.01986 35966 ft 379 kts 320°
2026-04-25 22:54 -31.05676 -61.05338 35966 ft 381 kts 320°
2026-04-25 22:54 -31.01204 -61.08685 35966 ft 383 kts 321°
2026-04-25 22:55 -30.96694 -61.12051 35966 ft 385 kts 321°
2026-04-25 22:55 -30.92164 -61.15429 35967 ft 387 kts 321°
2026-04-25 22:56 -30.87628 -61.18806 35966 ft 388 kts 320°
2026-04-25 22:56 -30.83096 -61.22177 35966 ft 388 kts 320°
2026-04-25 22:57 -30.78572 -61.25538 35966 ft 387 kts 320°
2026-04-25 22:57 -30.74007 -61.28926 35966 ft 387 kts 320°
2026-04-25 22:58 -30.69461 -61.32297 35967 ft 388 kts 320°
2026-04-25 22:58 -30.64898 -61.35677 35966 ft 388 kts 321°
2026-04-25 22:59 -30.60237 -61.39124 35966 ft 388 kts 320°
2026-04-25 22:59 -30.55698 -61.42478 35966 ft 387 kts 320°
2026-04-25 23:00 -30.51153 -61.45832 35966 ft 387 kts 320°
2026-04-25 23:00 -30.46618 -61.49176 35967 ft 388 kts 320°
2026-04-25 23:01 -30.42053 -61.52538 35966 ft 387 kts 320°
2026-04-25 23:01 -30.37521 -61.55871 35966 ft 387 kts 320°
2026-04-25 23:02 -30.32989 -61.59201 35966 ft 388 kts 320°
2026-04-25 23:02 -30.28433 -61.62545 35967 ft 388 kts 320°
2026-04-25 23:03 -30.23886 -61.65877 35967 ft 388 kts 321°
2026-04-25 23:03 -30.19342 -61.69199 35967 ft 388 kts 321°
2026-04-25 23:04 -30.15544 -61.71973 35966 ft 388 kts 321°
2026-04-25 23:04 -30.10231 -61.75851 35966 ft 388 kts 321°
2026-04-25 23:05 -30.05670 -61.79180 35966 ft 388 kts 321°
2026-04-25 23:05 -30.01085 -61.82522 35966 ft 388 kts 321°
2026-04-25 23:06 -29.96516 -61.85849 35966 ft 388 kts 321°
2026-04-25 23:06 -29.91949 -61.89171 35993 ft 388 kts 321°
2026-04-25 23:07 -29.87396 -61.92476 35999 ft 388 kts 321°
2026-04-25 23:07 -29.82668 -61.95498 36009 ft 392 kts 324°
2026-04-25 23:08 -29.77848 -61.98430 36016 ft 391 kts 324°
2026-04-25 23:08 -29.73055 -62.01359 36020 ft 391 kts 324°
2026-04-25 23:09 -29.68262 -62.04300 36020 ft 392 kts 324°
2026-04-25 23:09 -29.63454 -62.07251 36020 ft 392 kts 324°
2026-04-25 23:10 -29.58658 -62.10196 36020 ft 391 kts 324°
2026-04-25 23:10 -29.53871 -62.13132 36020 ft 391 kts 324°
2026-04-25 23:11 -29.49071 -62.16074 36020 ft 391 kts 324°
2026-04-25 23:11 -29.44206 -62.19054 36020 ft 391 kts 324°
2026-04-25 23:12 -29.39418 -62.21983 36021 ft 391 kts 324°
2026-04-25 23:12 -29.34626 -62.24912 36020 ft 392 kts 324°
2026-04-25 23:13 -29.29807 -62.27854 36020 ft 392 kts 324°
2026-04-25 23:13 -29.25003 -62.30783 36020 ft 391 kts 324°
2026-04-25 23:14 -29.20237 -62.33686 36020 ft 391 kts 324°
2026-04-25 23:14 -29.15440 -62.36604 36020 ft 390 kts 324°
2026-04-25 23:15 -29.10637 -62.39524 36021 ft 391 kts 324°
2026-04-25 23:15 -29.05846 -62.42435 36020 ft 393 kts 325°
2026-04-25 23:16 -29.01026 -62.45360 36021 ft 395 kts 325°
2026-04-25 23:16 -28.96159 -62.48308 36021 ft 397 kts 325°
2026-04-25 23:17 -28.91286 -62.51257 36020 ft 397 kts 326°
2026-04-25 23:17 -28.86421 -62.54199 36020 ft 397 kts 325°
2026-04-25 23:18 -28.81709 -62.57417 36021 ft 392 kts 319°
2026-04-25 23:18 -28.77280 -62.61043 36020 ft 391 kts 318°
2026-04-25 23:19 -28.72896 -62.64692 36021 ft 391 kts 318°
2026-04-25 23:19 -28.68512 -62.68331 36020 ft 391 kts 319°
2026-04-25 23:20 -28.64101 -62.71984 36020 ft 392 kts 319°
2026-04-25 23:20 -28.59708 -62.75618 36020 ft 390 kts 319°
2026-04-25 23:21 -28.55319 -62.79246 36020 ft 390 kts 319°
2026-04-25 23:21 -28.50935 -62.82868 36021 ft 391 kts 319°
2026-04-25 23:22 -28.46513 -62.86517 36021 ft 392 kts 319°
2026-04-25 23:23 -28.39909 -62.91959 36020 ft 392 kts 319°
2026-04-25 23:23 -28.35520 -62.95570 36020 ft 392 kts 319°
2026-04-25 23:24 -28.31105 -62.99201 36020 ft 392 kts 319°
2026-04-25 23:24 -28.26697 -63.02821 36020 ft 393 kts 319°
2026-04-25 23:25 -28.22295 -63.06432 36021 ft 393 kts 319°
2026-04-25 23:25 -28.17853 -63.10072 36020 ft 393 kts 319°
2026-04-25 23:26 -28.13423 -63.13700 36021 ft 394 kts 319°
2026-04-25 23:26 -28.08994 -63.17321 36020 ft 393 kts 319°
2026-04-25 23:27 -28.04581 -63.20926 36020 ft 393 kts 319°
2026-04-25 23:27 -28.00142 -63.24549 36020 ft 393 kts 319°
2026-04-25 23:28 -27.95722 -63.28153 36020 ft 393 kts 319°
2026-04-25 23:28 -27.91287 -63.31765 36021 ft 394 kts 319°
2026-04-25 23:29 -27.86899 -63.35335 36020 ft 394 kts 319°
2026-04-25 23:29 -27.82419 -63.38975 36020 ft 393 kts 319°
2026-04-25 23:30 -27.78000 -63.42563 36020 ft 393 kts 319°
2026-04-25 23:30 -27.73576 -63.46151 36020 ft 393 kts 319°
2026-04-25 23:31 -27.69143 -63.49743 36020 ft 393 kts 319°
2026-04-25 23:31 -27.64708 -63.53333 36020 ft 393 kts 319°
2026-04-25 23:32 -27.60287 -63.56908 36020 ft 393 kts 319°
2026-04-25 23:32 -27.55824 -63.60513 36020 ft 393 kts 319°
2026-04-25 23:33 -27.51395 -63.64087 36021 ft 393 kts 319°
2026-04-25 23:33 -27.46939 -63.67676 36021 ft 394 kts 319°
2026-04-25 23:34 -27.42502 -63.71243 36020 ft 394 kts 319°
2026-04-25 23:34 -27.38043 -63.74827 36020 ft 393 kts 319°
2026-04-25 23:35 -27.33609 -63.78389 36020 ft 393 kts 319°
2026-04-25 23:35 -27.29165 -63.81957 36020 ft 393 kts 319°
2026-04-25 23:36 -27.24705 -63.85534 36020 ft 394 kts 319°
2026-04-25 23:36 -27.20256 -63.89099 36020 ft 394 kts 319°
2026-04-25 23:37 -27.15819 -63.92650 36020 ft 393 kts 319°
2026-04-25 23:37 -27.11364 -63.96212 36020 ft 394 kts 319°
2026-04-25 23:38 -27.06906 -63.99774 36020 ft 394 kts 319°
2026-04-25 23:38 -27.02444 -64.03335 36021 ft 394 kts 319°
2026-04-25 23:39 -26.97998 -64.06879 36020 ft 393 kts 320°
2026-04-25 23:39 -26.93552 -64.10453 36021 ft 391 kts 319°
2026-04-25 23:40 -26.89180 -64.13998 36026 ft 390 kts 320°
2026-04-25 23:40 -26.84802 -64.17543 36032 ft 390 kts 320°
2026-04-25 23:41 -26.80428 -64.21080 36039 ft 390 kts 320°
2026-04-25 23:41 -26.76029 -64.24633 36044 ft 390 kts 320°
2026-04-25 23:42 -26.71645 -64.28170 36047 ft 390 kts 320°
2026-04-25 23:42 -26.67267 -64.31699 36047 ft 390 kts 320°
2026-04-25 23:43 -26.62876 -64.35234 36047 ft 389 kts 320°
2026-04-25 23:43 -26.58481 -64.38769 36047 ft 389 kts 320°
2026-04-25 23:44 -26.54106 -64.42285 36047 ft 390 kts 320°
2026-04-25 23:44 -26.49710 -64.45814 36047 ft 390 kts 320°
2026-04-25 23:45 -26.45309 -64.49343 36047 ft 390 kts 320°
2026-04-25 23:45 -26.40926 -64.52855 36048 ft 389 kts 320°
2026-04-25 23:46 -26.36533 -64.56371 36047 ft 389 kts 320°
2026-04-25 23:46 -26.32140 -64.59884 36047 ft 389 kts 320°
2026-04-25 23:47 -26.27781 -64.63364 35482 ft 384 kts 320°
2026-04-25 23:47 -26.25621 -64.65088 34863 ft 382 kts 320°
2026-04-25 23:47 -26.23474 -64.66798 34264 ft 381 kts 320°
2026-04-25 23:47 -26.21339 -64.68498 33662 ft 379 kts 320°
2026-04-25 23:48 -26.19217 -64.70187 33060 ft 377 kts 321°
2026-04-25 23:48 -26.17084 -64.71885 32452 ft 375 kts 321°
2026-04-25 23:48 -26.14973 -64.73565 31828 ft 374 kts 321°
2026-04-25 23:48 -26.12873 -64.75236 31200 ft 373 kts 321°
2026-04-25 23:49 -26.10786 -64.76896 30643 ft 370 kts 322°
2026-04-25 23:49 -26.08687 -64.78567 30200 ft 377 kts 322°
2026-04-25 23:49 -26.06551 -64.80266 29681 ft 378 kts 322°
2026-04-25 23:49 -26.04441 -64.81943 29172 ft 373 kts 323°
2026-04-25 23:50 -26.02346 -64.83606 28674 ft 367 kts 323°
2026-04-25 23:50 -26.00285 -64.85243 28187 ft 362 kts 323°
2026-04-25 23:50 -25.98246 -64.86861 27702 ft 365 kts 323°
2026-04-25 23:50 -25.96179 -64.88501 27203 ft 367 kts 324°
2026-04-25 23:51 -25.94153 -64.90108 26699 ft 362 kts 324°
2026-04-25 23:51 -25.92125 -64.91715 26216 ft 357 kts 324°
2026-04-25 23:51 -25.90121 -64.93303 25729 ft 356 kts 324°
2026-04-25 23:51 -25.88077 -64.94922 25246 ft 362 kts 325°
2026-04-25 23:52 -25.86050 -64.96527 24742 ft 358 kts 325°
2026-04-25 23:52 -25.84044 -64.98115 24251 ft 354 kts 325°
2026-04-25 23:52 -25.82053 -64.99689 23766 ft 351 kts 325°
2026-04-25 23:52 -25.80062 -65.01263 23284 ft 357 kts 326°
2026-04-25 23:53 -25.78044 -65.02858 22796 ft 356 kts 326°
2026-04-25 23:53 -25.76047 -65.04435 22290 ft 353 kts 326°
2026-04-25 23:53 -25.74050 -65.06012 21799 ft 350 kts 326°
2026-04-25 23:53 -25.72083 -65.07565 21309 ft 347 kts 326°
2026-04-25 23:54 -25.70121 -65.09111 20830 ft 352 kts 327°
2026-04-25 23:54 -25.68071 -65.10564 20331 ft 350 kts 330°
2026-04-25 23:54 -25.65980 -65.11925 19826 ft 347 kts 331°
2026-04-25 23:54 -25.63912 -65.13253 19336 ft 344 kts 332°
2026-04-25 23:55 -25.61864 -65.14571 18851 ft 341 kts 332°
2026-04-25 23:55 -25.59820 -65.15891 18356 ft 335 kts 332°
2026-04-25 23:55 -25.57802 -65.17197 17893 ft 342 kts 332°
2026-04-25 23:55 -25.55739 -65.18535 17396 ft 346 kts 331°
2026-04-25 23:56 -25.53681 -65.19874 16885 ft 343 kts 331°
2026-04-25 23:56 -25.51630 -65.21210 16395 ft 340 kts 331°
2026-04-25 23:56 -25.49606 -65.22529 15904 ft 338 kts 331°
2026-04-25 23:56 -25.47602 -65.23834 15417 ft 336 kts 331°
2026-04-25 23:57 -25.45590 -65.25144 14927 ft 334 kts 331°
2026-04-25 23:57 -25.43610 -65.26432 14443 ft 329 kts 331°
2026-04-25 23:57 -25.41651 -65.27707 13970 ft 324 kts 331°
2026-04-25 23:57 -25.39730 -65.28956 13495 ft 320 kts 331°
2026-04-25 23:58 -25.37837 -65.30187 13029 ft 316 kts 331°
2026-04-25 23:58 -25.35972 -65.31398 12579 ft 312 kts 331°
2026-04-25 23:58 -25.34115 -65.32605 12115 ft 309 kts 331°
2026-04-25 23:58 -25.32270 -65.33802 11661 ft 305 kts 331°
2026-04-25 23:59 -25.30452 -65.34982 11216 ft 302 kts 331°
2026-04-25 23:59 -25.28658 -65.36147 10838 ft 298 kts 331°
2026-04-25 23:59 -25.26880 -65.37300 10378 ft 296 kts 331°
2026-04-25 23:59 -25.25144 -65.38426 10224 ft 284 kts 331°
2026-04-26 00:00 -25.23491 -65.39498 10157 ft 270 kts 331°
2026-04-26 00:00 -25.21907 -65.40526 10108 ft 263 kts 331°
2026-04-26 00:00 -25.20324 -65.41550 9976 ft 262 kts 331°
2026-04-26 00:00 -25.18745 -65.42571 9657 ft 265 kts 331°
2026-04-26 00:01 -25.17177 -65.43586 9436 ft 260 kts 331°
2026-04-26 00:01 -25.15624 -65.44594 9287 ft 261 kts 331°
2026-04-26 00:01 -25.14057 -65.45615 8983 ft 262 kts 331°
2026-04-26 00:01 -25.12511 -65.46624 8680 ft 257 kts 331°
2026-04-26 00:02 -25.10992 -65.47615 8389 ft 253 kts 331°
2026-04-26 00:02 -25.09488 -65.48595 8115 ft 247 kts 330°
2026-04-26 00:02 -25.08049 -65.49533 7854 ft 235 kts 330°
2026-04-26 00:02 -25.06658 -65.50438 7426 ft 233 kts 330°
2026-04-26 00:03 -25.05274 -65.51339 7019 ft 228 kts 330°
2026-04-26 00:03 -25.03912 -65.52096 6764 ft 212 kts 342°
2026-04-26 00:03 -25.02538 -65.52296 6665 ft 192 kts
2026-04-26 00:03 -25.01265 -65.52073 6690 ft 183 kts 11°
2026-04-26 00:04 -25.00001 -65.51785 6622 ft 187 kts 12°
2026-04-26 00:04 -24.98733 -65.51499 6434 ft 187 kts 12°
2026-04-26 00:04 -24.97461 -65.51222 6191 ft 181 kts 12°
2026-04-26 00:04 -24.96264 -65.50959 5915 ft 170 kts 12°
2026-04-26 00:05 -24.95152 -65.50714 5708 ft 161 kts 12°
2026-04-26 00:05 -24.94045 -65.50471 5507 ft 165 kts 12°
2026-04-26 00:05 -24.92921 -65.50225 5274 ft 164 kts 12°
2026-04-26 00:05 -24.91812 -65.49983 5047 ft 162 kts 12°
2026-04-26 00:06 -24.90711 -65.49743 4837 ft 163 kts 12°
2026-04-26 00:06 -24.89612 -65.49503 4607 ft 160 kts 12°
2026-04-26 00:06 -24.88530 -65.49272 4413 ft 155 kts 12°
2026-04-26 00:06 -24.87510 -65.49040 4171 ft 146 kts 12°
2026-04-26 00:07 -24.86570 -65.48832 4090 ft 114 kts
2026-04-26 00:07 -24.85992 -65.48711 4076 ft 73 kts 11°
2026-04-26 00:07 -24.85517 -65.48603 4069 ft 65 kts 11°
2026-04-26 00:07 -24.85093 -65.48510 4061 ft 57 kts 11°
2026-04-26 00:08 -24.84815 -65.48450 4056 ft 20 kts 10°
2026-04-26 00:08 -24.84703 -65.48415 4054 ft 16 kts 32°
2026-04-26 00:08 -24.84645 -65.48357 4049 ft 13 kts 44°
2026-04-26 00:08 -24.84589 -65.48272 4046 ft 15 kts 69°
2026-04-26 00:09 -24.84554 -65.48155 4041 ft 17 kts 72°
2026-04-26 00:09 -24.84516 -65.48025 4036 ft 12 kts 72°
2026-04-26 00:09 -24.84498 -65.47964 4034 ft 10 kts 71°
2026-04-26 00:09 -24.84470 -65.47908 4032 ft 9 kts 63°
2026-04-26 00:10 -24.84464 -65.47894 4031 ft 0 kts 66°